K0CPM-2 Weather Reports


Display with metric or nautical units.
time (UTC)temp
F
wind
direction
speed
MPH
gust
MPH
rain 1hr
in
rain 24hr
in
rain mn
in
humidity
%
barometer
mb
20260506174542 84 319 1.0 6.0 0.00 0.01 0.01 85 1010.9
20260506173037 82 312 0.0 5.0 0.00 0.01 0.01 89 1011.1
20260506171548 81 18 0.0 9.0 0.00 0.01 0.01 90 1011.3
20260506170036 82 129 1.0 6.0 0.00 0.01 0.01 86 1011.4
20260506164536 82 142 2.0 5.0 0.00 0.01 0.01 85 1011.1
20260506163037 82 347 2.0 8.0 0.00 0.01 0.01 84 1011.0
20260506161539 82 318 3.0 10.0 0.00 0.01 0.01 84 1010.7
20260506160029 82 85 2.0 6.0 0.00 0.01 0.01 85 1010.7
20260506154525 82 129 1.0 7.0 0.00 0.01 0.01 87 1010.7
20260506153022 81 183 2.0 6.0 0.00 0.01 0.01 87 1010.6
20260506151520 81 12 1.0 8.0 0.00 0.01 0.01 87 1010.5
20260506150020 80 109 2.0 9.0 0.00 0.01 0.01 88 1010.5
20260506144513 80 12 1.0 5.0 0.00 0.01 0.01 89 1010.5
20260506143011 80 325 2.0 6.0 0.00 0.01 0.01 90 1010.3
20260506141508 79 347 2.0 5.0 0.00 0.01 0.01 90 1010.1
20260506140006 78 45 2.0 5.0 0.00 0.01 0.01 92 1010.0
20260506134510 78 121 1.0 5.0 0.00 0.01 0.01 93 1010.1
20260506133100 77 113 0.0 3.0 0.00 0.01 0.01 94 1010.1
20260506131610 76 92 1.0 4.0 0.00 0.01 0.01 95 1010.0
20260506130056 75 60 1.0 4.0 0.00 0.01 0.01 95 1010.1
20260506124554 75 120 0.0 4.0 0.00 0.01 0.01 96 1010.0
20260506123053 75 118 2.0 4.0 0.00 0.01 0.01 96 1009.8
20260506121552 74 105 0.0 3.0 0.00 0.01 0.01 96 1009.7
20260506120048 74 118 2.0 5.0 0.01 0.01 0.01 96 1009.3
20260506114552 74 113 1.0 4.0 0.01 0.01 0.01 95 1009.3
20260506113048 74 356 0.0 3.0 0.01 0.01 0.01 95 1009.2
20260506111602 74 144 0.0 2.0 0.01 0.01 0.01 95 1009.2
20260506110048 74 108 0.0 5.0 0.00 0.00 0.00 94 1009.1
20260506104546 75 131 1.0 4.0 0.00 0.00 0.00 93 1008.9
20260506103045 75 50 1.0 4.0 0.00 0.00 0.00 92 1008.8
20260506101545 75 98 0.0 3.0 0.00 0.00 0.00 92 1008.7
20260506100043 75 115 0.0 3.0 0.00 0.00 0.00 92 1008.6
20260506094543 75 132 0.0 9.0 0.00 0.00 0.00 92 1008.7
20260506093039 74 101 1.0 3.0 0.00 0.00 0.00 92 1008.5
20260506091541 74 111 1.0 5.0 0.00 0.00 0.00 91 1008.7
20260506090037 74 108 0.0 3.0 0.00 0.00 0.00 91 1008.8
20260506084533 74 110 0.0 2.0 0.00 0.00 0.00 91 1008.8
20260506083028 74 113 0.0 3.0 0.00 0.00 0.00 90 1008.8
20260506081531 74 116 1.0 4.0 0.00 0.00 0.00 90 1008.6
20260506073013 73 85 2.0 5.0 0.00 0.00 0.00 91 1008.7
20260506071510 73 84 1.0 5.0 0.00 0.00 0.00 92 1008.8
20260506061550 73 124 0.0 4.0 0.00 0.00 0.00 92 1009.1
20260506044536 73 83 1.0 5.0 0.00 0.00 0.00 91 1009.4
20260506043032 73 129 1.0 6.0 0.00 0.00 0.00 91 1009.5
20260506041537 73 124 1.0 5.0 0.00 0.00 0.00 91 1009.5
20260506040030 73 129 1.0 5.0 0.00 0.00 0.00 91 1009.4
20260506034530 74 116 1.0 3.0 0.00 0.00 0.00 90 1009.6
20260506033029 74 144 2.0 7.0 0.00 0.00 0.00 90 1009.6
20260506031537 74 80 1.0 6.0 0.00 0.00 0.00 89 1009.6
20260506030029 74 62 1.0 5.0 0.00 0.00 0.00 89 1009.6
20260506024537 74 140 1.0 4.0 0.00 0.00 0.00 88 1009.4
20260506023026 74 96 1.0 7.0 0.00 0.00 0.00 87 1009.3
20260506021527 75 164 1.0 7.0 0.00 0.00 0.00 86 1009.2
20260506020026 75 110 2.0 6.0 0.00 0.00 0.00 85 1009.0
20260506014527 75 87 1.0 5.0 0.00 0.00 0.00 85 1008.9
20260506013029 75 117 0.0 3.0 0.00 0.00 0.00 85 1008.9
20260506011555 76 124 0.0 2.0 0.00 0.00 0.00 84 1008.9
20260506010024 76 140 1.0 4.0 0.00 0.00 0.00 83 1008.9
20260506004522 76 120 1.0 6.0 0.00 0.00 0.00 83 1009.0
20260506003023 77 125 0.0 2.0 0.00 0.00 0.00 81 1009.0
20260506001522 77 104 2.0 5.0 0.00 0.00 0.00 79 1008.9
20260506000040 78 116 1.0 3.0 0.00 0.00 0.00 78 1008.9
20260505234537 78 134 2.0 7.0 0.00 0.00 0.00 77 1009.0
20260505233021 78 124 3.0 8.0 0.00 0.00 0.00 77 1009.0
20260505231521 79 139 1.0 10.0 0.00 0.00 0.00 75 1009.0
20260505230042 80 349 2.0 5.0 0.00 0.00 0.00 74 1009.0
20260505224533 80 23 4.0 10.0 0.00 0.00 0.00 73 1009.0
20260505223022 81 302 1.0 9.0 0.00 0.00 0.00 71 1008.9
20260505221518 81 145 2.0 9.0 0.00 0.00 0.00 70 1008.8
20260505220016 81 340 2.0 10.0 0.00 0.00 0.00 71 1008.8
20260505214520 82 345 2.0 7.0 0.00 0.00 0.00 71 1008.9
20260505213013 82 353 4.0 9.0 0.00 0.00 0.00 71 1009.0
20260505211521 82 23 3.0 9.0 0.00 0.00 0.00 70 1009.1
20260505210011 83 313 3.0 10.0 0.00 0.00 0.00 69 1009.2
20260505204511 84 51 2.0 9.0 0.00 0.00 0.00 67 1009.3
20260505203011 84 134 3.0 7.0 0.00 0.00 0.00 67 1009.2
20260505201510 83 146 3.0 10.0 0.00 0.00 0.00 68 1009.3
20260505200008 83 27 5.0 10.0 0.00 0.00 0.00 68 1009.4
20260505194508 84 295 2.0 8.0 0.00 0.00 0.00 65 1009.3
20260505193006 84 30 4.0 11.0 0.00 0.00 0.00 62 1009.4
20260505191504 84 121 2.0 7.0 0.00 0.00 0.00 67 1009.7
20260505190003 85 128 2.0 6.0 0.00 0.00 0.00 62 1009.9
20260505184601 85 131 1.0 5.0 0.00 0.00 0.00 64 1010.1
20260505183056 83 298 3.0 9.0 0.00 0.00 0.00 64 1010.3
20260505181555 83 9 3.0 9.0 0.00 0.00 0.00 64 1010.3
20260505180056 83 81 3.0 8.0 0.00 0.00 0.00 65 1010.4